[[{"header":{"parameterUnit":"m.s-1","parameterCategory":1,"la1":30.2991,"la2":30.254,"lo1":-89.0895,"lo2":-89.0444,"dy":0.0017,"dx":0.0017,"nx":28,"ny":28,"refTime":"2025-06-14T21:00:00:Z","depth":0,"parameterNumber":2,"parameterNumberName":"U-component_of_WINDS"},"data":[0,0,0,0,0,0,0,0,0,0,0,0,0,0,0,0,0,0,0,0,0,0,0,0,0,0,0,0,0,0,0,0,0,0,0,0,0,0,0,0,0,0,0,0,0,0,0,0,0,0,0,0,0,0,0,0,0,0,1.6726,1.6726,0,1.6727,1.6727,1.6727,1.6718,1.6718,1.6718,1.6718,1.6718,1.6718,1.6718,0,0,0,0,0,0,0,0,0,0,0,0,0,1.6717,1.6718,1.6726,1.6726,1.6726,1.6727,1.6727,1.6727,1.6718,1.6718,1.6718,1.6718,1.6718,1.6718,1.6718,0,0,0,0,0,0,0,0,0,0,0,0,0,1.672,1.6718,1.6726,1.6722,1.6722,1.6727,1.6727,1.6727,1.6719,1.6718,1.6718,1.6718,1.6718,1.6718,1.6719,1.6727,0,0,1.672,1.672,0,0,0,0,0,0,0,0,1.672,1.672,1.6723,1.6722,1.6722,1.6722,1.6724,1.6727,1.6719,1.672,1.6718,1.6717,1.672,1.672,1.6721,1.6727,1.6727,1.672,1.672,1.672,1.672,0,0,0,0,0,0,0,1.672,1.672,1.6726,1.6723,1.6722,1.672,1.672,1.6724,1.6722,1.672,1.6719,1.6719,1.6719,1.672,1.6721,1.6727,1.672,1.672,1.672,1.672,1.6742,1.6742,0,0,0,0,0,0,1.672,1.672,1.6726,1.6726,1.672,1.6721,1.6721,1.6722,1.6722,1.6721,1.672,1.6719,1.672,1.672,1.6721,1.6731,1.672,1.672,1.672,1.6741,1.6742,1.6742,0,0,0,0,0,0,1.672,1.6721,1.6726,1.6723,1.6724,1.6721,1.6723,1.6723,1.6724,1.6721,1.6721,1.6721,1.672,1.672,1.6726,1.6731,1.672,1.6721,1.6741,1.6742,1.6742,1.6751,0,0,0,0,0,0,1.672,1.6721,1.6724,1.6723,1.6724,1.6731,1.6724,1.6723,1.6724,1.6723,1.6723,1.6722,1.672,1.6725,1.6726,1.6731,1.6721,1.674,1.6741,1.6742,1.675,1.6752,1.6753,0,0,0,0,0,1.6719,1.6726,1.6724,1.6725,1.6728,1.6732,1.6732,1.6729,1.6725,1.6728,1.6727,1.6722,1.673,1.6726,1.6727,1.6732,1.674,1.6741,1.6742,1.675,1.6752,1.6753,0,0,0,0,0,0,1.6727,1.6726,1.6724,1.673,1.6731,1.673,1.6734,1.6731,1.6733,1.6732,1.6728,1.6728,1.6734,1.6734,1.6729,1.6741,1.6734,1.6736,1.674,1.6742,1.6744,1.6743,1.6721,0,0,0,0,0,1.673,1.6733,1.6732,1.6738,1.6739,1.6737,1.6738,1.6736,1.6736,1.6736,1.6736,1.6736,1.6739,1.6741,1.6743,1.6751,1.6751,1.6755,1.6756,1.6757,1.6758,1.6762,1.6764,1.6745,1.6745,1.6745,0,0,1.6735,1.6735,1.6737,1.674,1.674,1.6744,1.6737,1.6741,1.6743,1.6737,1.6742,1.6742,1.6742,1.6749,1.6752,1.6749,1.6764,1.6759,1.676,1.6759,1.6763,1.6765,1.6767,1.6746,1.6746,1.6745,0,0,1.6746,1.6746,1.6751,1.6752,1.6753,1.6752,1.6753,1.6753,1.6752,1.6758,1.6753,1.6756,1.6761,1.6762,1.6762,1.6775,1.6771,1.6776,1.6783,1.6787,1.6789,1.679,1.6794,1.6796,1.6777,1.6777,1.6777,0,1.6752,1.6757,1.6754,1.6759,1.676,1.6755,1.6761,1.6762,1.6763,1.6764,1.6761,1.6767,1.6767,1.6774,1.6777,1.6778,1.6779,1.6775,1.6789,1.679,1.6791,1.6795,1.6797,1.6777,1.6777,1.6777,1.6777,0,1.6764,1.6768,1.6772,1.6774,1.6776,1.6781,1.6779,1.6782,1.6779,1.6779,1.6784,1.6784,1.6787,1.6788,1.6786,1.6795,1.6793,1.679,1.6783,1.6794,1.6797,1.6799,1.6778,1.6778,1.6778,1.6778,0,0,1.6779,1.678,1.6782,1.6783,1.6784,1.6786,1.6791,1.6794,1.6796,1.6798,1.6801,1.6806,1.6803,1.6804,1.6802,1.6806,1.6815,1.6802,1.6802,1.6804,1.6825,1.6827,1.6829,1.6813,1.6814,1.6814,1.6825,0,1.6789,1.6797,1.6796,1.6804,1.6807,1.6803,1.6808,1.6809,1.6808,1.6811,1.6811,1.6814,1.681,1.681,1.6814,1.6813,1.6819,1.6813,1.6816,1.6816,1.6815,1.6831,1.6833,1.6843,1.6826,1.6826,1.6827,0,1.6802,1.6804,1.6813,1.6814,1.6815,1.6819,1.6821,1.6824,1.6826,1.6825,1.6827,1.6825,1.683,1.6824,1.6831,1.6826,1.6828,1.6828,1.6828,1.6828,1.6821,1.683,1.6846,1.6848,1.6829,1.6829,1.6828,0,1.6811,1.6816,1.6822,1.6823,1.6825,1.6828,1.6828,1.683,1.6831,1.6834,1.6835,1.6838,1.6839,1.6842,1.684,1.6836,1.6847,1.6841,1.6846,1.6846,1.6848,1.6848,1.6864,1.685,1.685,1.685,1.685,0,1.6822,1.6827,1.6826,1.683,1.6836,1.6834,1.684,1.684,1.6842,1.6845,1.6842,1.6846,1.6844,1.6847,1.6846,1.6851,1.6852,1.6852,1.6851,1.6852,1.6852,1.6852,1.6851,1.6851,1.6851,1.6851,1.6851,0,1.6832,1.6832,1.6838,1.684,1.684,1.6844,1.6845,1.6849,1.6849,1.6853,1.6854,1.6854,1.6857,1.6857,1.6861,1.686,1.6867,1.6866,1.6866,1.6866,1.687,1.687,1.6887,1.6889,1.6875,1.6875,1.6875,0,1.6839,1.6843,1.6845,1.6847,1.6848,1.6852,1.6854,1.6853,1.6856,1.6858,1.6861,1.6865,1.6867,1.6874,1.6874,1.6877,1.6875,1.6881,1.6876,1.6876,1.6875,1.6874,1.6874,1.6882,1.6882,1.6882,1.6882,0,1.6851,1.6851,1.6854,1.6857,1.686,1.6863,1.6865,1.6867,1.6866,1.6869,1.6873,1.6875,1.688,1.6883,1.6886,1.6887,1.6884,1.6884,1.6886,1.6885,1.6885,1.6885,1.6868,1.6884,1.6884,1.6883,1.6883,1.6883,1.6859,1.6862,1.6865,1.6868,1.687,1.6873,1.6876,1.6877,1.688,1.6883,1.6883,1.6887,1.6889,1.6893,1.6895,1.6898,1.6896,1.6898,1.6898,1.6898,1.6898,1.6886,1.6899,1.6899,1.6899,1.6899,1.6899,0,1.687,1.6872,1.6875,1.6879,1.6882,1.688,1.6883,1.6885,1.6889,1.6892,1.6895,1.6899,1.6903,1.6904,1.6907,1.691,1.6909,1.6911,1.691,1.691,1.6901,1.6899,1.6912,1.6912,1.6912,1.6912,1.6912,1.6912,1.6876,1.6882,1.6882,1.6889,1.689,1.6895,1.6896,1.6899,1.69,1.6906,1.6909,1.691,1.6912,1.6915,1.6919,1.6919,1.692,1.6922,1.6922,1.6912,1.6911,1.691,1.6908,1.6923,1.6923,1.6931,1.6931,1.6931]},{"header":{"parameterUnit":"m.s-1","parameterCategory":1,"la1":30.2991,"la2":30.254,"lo1":-89.0895,"lo2":-89.0444,"dy":0.0017,"dx":0.0017,"nx":28,"ny":28,"refTime":"2025-06-14T21:00:00:Z","depth":0,"parameterNumber":3,"parameterNumberName":"V-component_of_WINDS"},"data":[0,0,0,0,0,0,0,0,0,0,0,0,0,0,0,0,0,0,0,0,0,0,0,0,0,0,0,0,0,0,0,0,0,0,0,0,0,0,0,0,0,0,0,0,0,0,0,0,0,0,0,0,0,0,0,0,0,0,3.4546,3.4548,0,3.4748,3.475,3.4752,3.4847,3.4847,3.4847,3.4847,3.5048,3.5053,3.5058,0,0,0,0,0,0,0,0,0,0,0,0,0,3.4239,3.4244,3.4546,3.4549,3.4551,3.4747,3.475,3.4753,3.4847,3.4847,3.4847,3.4847,3.5046,3.5052,3.5059,0,0,0,0,0,0,0,0,0,0,0,0,0,3.4399,3.4246,3.4546,3.4622,3.4631,3.4747,3.475,3.4754,3.4847,3.4847,3.4847,3.4847,3.5044,3.5052,3.506,3.5113,0,0,3.5085,3.5088,0,0,0,0,0,0,0,0,3.439,3.4411,3.4608,3.4617,3.4627,3.4772,3.4716,3.4874,3.4847,3.4765,3.4847,3.4847,3.4956,3.4971,3.5009,3.5122,3.5131,3.5085,3.509,3.5094,3.5096,0,0,0,0,0,0,0,3.4379,3.4402,3.4626,3.4611,3.4623,3.4645,3.4668,3.4746,3.4858,3.4772,3.478,3.4802,3.4961,3.5001,3.5014,3.5134,3.5085,3.5092,3.5097,3.5101,3.5303,3.5304,0,0,0,0,0,0,3.4356,3.4393,3.4619,3.4632,3.4506,3.4651,3.4676,3.4726,3.4858,3.4878,3.4802,3.4806,3.4987,3.5005,3.5022,3.5095,3.5094,3.5101,3.5106,3.5303,3.5303,3.5304,0,0,0,0,0,0,3.4349,3.4375,3.4611,3.4514,3.4546,3.4656,3.4711,3.473,3.477,3.4881,3.4901,3.4823,3.4988,3.501,3.5091,3.5103,3.5105,3.5112,3.5302,3.5303,3.5304,3.524,0,0,0,0,0,0,3.434,3.4372,3.4395,3.4514,3.4551,3.4677,3.4712,3.4734,3.4785,3.4792,3.4906,3.4924,3.4989,3.5078,3.5099,3.5114,3.5119,3.5302,3.5303,3.5303,3.5242,3.5239,3.5236,0,0,0,0,0,3.4329,3.4367,3.4395,3.4422,3.4581,3.4678,3.4699,3.4775,3.4785,3.4808,3.488,3.4921,3.5098,3.5085,3.5109,3.5128,3.5301,3.5302,3.5303,3.5243,3.5239,3.5236,0,0,0,0,0,0,3.4244,3.4384,3.4417,3.4495,3.4574,3.4694,3.4725,3.4768,3.4844,3.4847,3.4936,3.4961,3.5033,3.5089,3.5072,3.5187,3.5203,3.5209,3.5149,3.5147,3.5144,3.5129,3.5126,0,0,0,0,0,3.4234,3.4303,3.4421,3.4479,3.4517,3.4614,3.4659,3.4711,3.4795,3.4829,3.4906,3.4985,3.5059,3.5106,3.5179,3.525,3.5276,3.5274,3.5271,3.5269,3.5273,3.5316,3.5317,3.5308,3.5308,3.5308,0,0,3.4215,3.43,3.4337,3.4464,3.4531,3.4599,3.4641,3.4711,3.4762,3.4839,3.492,3.4979,3.5074,3.5149,3.5187,3.5198,3.5281,3.527,3.5267,3.5273,3.5317,3.5318,3.5318,3.5308,3.5308,3.5308,0,0,3.4215,3.4286,3.4343,3.4411,3.4513,3.4578,3.4591,3.4705,3.4748,3.4832,3.4891,3.4952,3.5077,3.5143,3.5193,3.5219,3.526,3.5241,3.5226,3.5267,3.5268,3.5269,3.528,3.5283,3.5244,3.5244,3.5244,0,3.4178,3.4285,3.4366,3.4434,3.4488,3.4563,3.4621,3.4682,3.4802,3.4837,3.4848,3.5008,3.5077,3.517,3.5177,3.5214,3.5232,3.5228,3.5261,3.5263,3.5266,3.5277,3.5281,3.5241,3.5242,3.5242,3.5242,0,3.4235,3.4307,3.4341,3.4458,3.4516,3.4578,3.4669,3.4717,3.4764,3.4827,3.4911,3.4996,3.509,3.5116,3.5161,3.5216,3.522,3.5244,3.5263,3.5262,3.5275,3.5279,3.5237,3.5238,3.5239,3.524,0,0,3.4186,3.435,3.4361,3.4416,3.4535,3.4593,3.4658,3.4752,3.4792,3.4872,3.493,3.5035,3.506,3.5116,3.5169,3.5205,3.5223,3.5226,3.5229,3.5223,3.529,3.5271,3.5275,3.525,3.5251,3.5252,3.5283,0,3.4204,3.4328,3.4404,3.4496,3.4565,3.4638,3.4695,3.4774,3.4835,3.4901,3.4967,3.5041,3.5068,3.5102,3.5141,3.5212,3.5237,3.5211,3.5304,3.5307,3.528,3.5281,3.5262,3.5286,3.5288,3.5289,3.5289,0,3.4242,3.4324,3.4423,3.4537,3.4569,3.4619,3.4712,3.4775,3.4865,3.4907,3.4971,3.5025,3.5097,3.5108,3.5208,3.5189,3.5231,3.5272,3.5275,3.5288,3.5298,3.5295,3.5296,3.53,3.5297,3.5297,3.5296,0,3.4199,3.4333,3.4411,3.4456,3.4589,3.4624,3.468,3.4771,3.4823,3.4904,3.4939,3.5025,3.5073,3.5138,3.5215,3.5216,3.5307,3.5325,3.5344,3.5342,3.5361,3.5359,3.537,3.5386,3.5386,3.5385,3.5385,0,3.4211,3.427,3.4394,3.4442,3.451,3.4596,3.466,3.4723,3.4804,3.4864,3.4931,3.4986,3.5083,3.515,3.5209,3.5284,3.5304,3.534,3.5356,3.5335,3.5331,3.5365,3.5366,3.5387,3.5386,3.5386,3.5386,0,3.4175,3.426,3.435,3.4471,3.4502,3.4547,3.465,3.4698,3.4763,3.4839,3.4862,3.4963,3.5046,3.5129,3.5238,3.5279,3.5353,3.5372,3.5323,3.5332,3.5347,3.5345,3.5381,3.5391,3.5398,3.5398,3.5398,0,3.4178,3.4225,3.4352,3.4398,3.4455,3.4528,3.4583,3.467,3.4723,3.4832,3.4867,3.4955,3.5031,3.5159,3.5241,3.5326,3.535,3.5356,3.5363,3.5341,3.5352,3.5348,3.5354,3.5354,3.5353,3.5353,3.5352,0,3.4175,3.4216,3.4292,3.4385,3.4449,3.4525,3.4603,3.4637,3.4739,3.4796,3.4882,3.4941,3.5055,3.5142,3.5237,3.5294,3.534,3.535,3.5359,3.5339,3.5309,3.5328,3.5317,3.5349,3.5349,3.5349,3.535,3.535,3.416,3.4206,3.4303,3.4387,3.4455,3.4528,3.458,3.4653,3.4728,3.4829,3.4875,3.4963,3.5053,3.5186,3.5243,3.5312,3.5324,3.5337,3.534,3.5343,3.5339,3.5298,3.5329,3.5329,3.5329,3.533,3.533,0,3.4161,3.4228,3.4304,3.4414,3.448,3.452,3.4609,3.4661,3.4738,3.4819,3.4893,3.4993,3.5078,3.5168,3.5258,3.5295,3.5319,3.5316,3.5315,3.5328,3.5322,3.5306,3.5296,3.5296,3.5296,3.5296,3.5296,3.5296,3.417,3.4251,3.4303,3.4419,3.4485,3.4573,3.4621,3.4688,3.4754,3.4864,3.4936,3.4994,3.508,3.5177,3.5256,3.528,3.5311,3.5302,3.5332,3.5325,3.5328,3.533,3.5315,3.5308,3.5308,3.5333,3.5333,3.5333]}]]